AAL7940 MUCU-KMIA

Flight info

Callsign AAL7940
Flight time 1h 35m
Altitude 38000
Route SENSO3 AVADU UM218 MIRIX UL218 MIROM UZ539 ZEUSS VIICE2
Aircraft A321/M-SDE3FGHIRWY/LB1

Departure

Time 2026-04-24 00:12
Airport Antonio Maceo International Airport (MUCU)

Arrival

Time 2026-04-24 01:47
Airport Miami International Airport (KMIA)
Time Latitude Longitude Altitude Speed Heading
2026-04-23 23:25 19.97199 -75.83705 231 ft 0 kts 90°
2026-04-23 23:52 19.97200 -75.83725 231 ft 3 kts 121°
2026-04-23 23:52 19.97208 -75.83734 231 ft 0 kts 148°
2026-04-23 23:58 19.97207 -75.83734 231 ft 0 kts 148°
2026-04-24 00:01 19.97203 -75.83732 231 ft 3 kts 149°
2026-04-24 00:01 19.97141 -75.83713 232 ft 11 kts 137°
2026-04-24 00:01 19.97141 -75.83589 233 ft 19 kts 91°
2026-04-24 00:01 19.97055 -75.83547 238 ft 14 kts 181°
2026-04-24 00:02 19.96982 -75.83591 237 ft 13 kts 261°
2026-04-24 00:02 19.96985 -75.83697 240 ft 19 kts 272°
2026-04-24 00:02 19.96983 -75.83867 236 ft 27 kts 269°
2026-04-24 00:02 19.96980 -75.84096 237 ft 35 kts 269°
2026-04-24 00:03 19.96976 -75.84383 234 ft 43 kts 268°
2026-04-24 00:03 19.96964 -75.84713 233 ft 45 kts 270°
2026-04-24 00:03 19.96965 -75.85041 234 ft 43 kts 270°
2026-04-24 00:03 19.96965 -75.85323 236 ft 28 kts 271°
2026-04-24 00:04 19.97007 -75.85442 238 ft 7 kts 272°
2026-04-24 00:04 19.96976 -75.85458 238 ft 5 kts 168°
2026-04-24 00:04 19.96968 -75.85422 237 ft 6 kts 86°
2026-04-24 00:04 19.96968 -75.85419 237 ft 0 kts 87°
2026-04-24 00:05 19.96969 -75.85370 237 ft 32 kts 89°
2026-04-24 00:11 19.96969 -75.85349 237 ft 38 kts 90°
2026-04-24 00:11 19.96973 -75.84754 233 ft 121 kts 90°
2026-04-24 00:11 19.96978 -75.83618 332 ft 178 kts 92°
2026-04-24 00:12 19.96986 -75.82308 1264 ft 175 kts 88°
2026-04-24 00:12 19.96920 -75.81023 2207 ft 172 kts 95°
2026-04-24 00:12 19.96723 -75.79734 2583 ft 185 kts 98°
2026-04-24 00:12 19.96480 -75.78303 2820 ft 207 kts 99°
2026-04-24 00:13 19.96214 -75.76720 3103 ft 225 kts 98°
2026-04-24 00:13 19.95947 -75.75081 3678 ft 229 kts 98°
2026-04-24 00:13 19.95682 -75.73387 4312 ft 233 kts 98°
2026-04-24 00:13 19.95419 -75.71676 5036 ft 236 kts 98°
2026-04-24 00:14 19.95156 -75.69940 5736 ft 239 kts 99°
2026-04-24 00:14 19.94894 -75.68172 6427 ft 243 kts 98°
2026-04-24 00:14 19.94631 -75.66381 7092 ft 247 kts 98°
2026-04-24 00:14 19.94365 -75.64557 7747 ft 251 kts 98°
2026-04-24 00:15 19.94096 -75.62710 8423 ft 255 kts 99°
2026-04-24 00:15 19.93824 -75.60856 9112 ft 258 kts 99°
2026-04-24 00:15 19.93541 -75.58932 9784 ft 263 kts 99°
2026-04-24 00:15 19.93260 -75.57009 10023 ft 267 kts 99°
2026-04-24 00:16 19.92995 -75.55052 10236 ft 268 kts 93°
2026-04-24 00:16 19.93338 -75.53124 10797 ft 270 kts 60°
2026-04-24 00:16 19.94552 -75.51606 11263 ft 277 kts 33°
2026-04-24 00:16 19.96372 -75.50833 11403 ft 294 kts
2026-04-24 00:17 19.98484 -75.50716 11544 ft 315 kts 360°
2026-04-24 00:17 20.00750 -75.50638 11672 ft 337 kts
2026-04-24 00:17 20.03124 -75.50552 11949 ft 351 kts
2026-04-24 00:17 20.05616 -75.50455 12518 ft 356 kts
2026-04-24 00:18 20.08077 -75.50352 13124 ft 360 kts
2026-04-24 00:18 20.10588 -75.50242 13794 ft 363 kts
2026-04-24 00:18 20.13121 -75.50133 14334 ft 366 kts
2026-04-24 00:18 20.15681 -75.50046 14850 ft 370 kts 360°
2026-04-24 00:19 20.18272 -75.49977 15361 ft 373 kts 359°
2026-04-24 00:19 20.20888 -75.49915 15895 ft 377 kts 359°
2026-04-24 00:19 20.23515 -75.49853 16423 ft 380 kts 359°
2026-04-24 00:19 20.25274 -75.49812 16765 ft 383 kts 358°
2026-04-24 00:20 20.35220 -75.54406 18883 ft 377 kts 307°
2026-04-24 00:21 20.36908 -75.56567 19370 ft 380 kts 307°
2026-04-24 00:21 20.38607 -75.58735 19847 ft 382 kts 307°
2026-04-24 00:21 20.40317 -75.60915 20349 ft 384 kts 307°
2026-04-24 00:21 20.42010 -75.63075 20846 ft 386 kts 306°
2026-04-24 00:22 20.43739 -75.65278 21351 ft 387 kts 306°
2026-04-24 00:22 20.45471 -75.67487 21827 ft 389 kts 306°
2026-04-24 00:22 20.47211 -75.69707 22307 ft 391 kts 306°
2026-04-24 00:22 20.48964 -75.71941 22793 ft 393 kts 306°
2026-04-24 00:23 20.50720 -75.74180 23253 ft 394 kts 306°
2026-04-24 00:23 20.52487 -75.76428 23661 ft 396 kts 306°
2026-04-24 00:23 20.54265 -75.78694 24029 ft 398 kts 306°
2026-04-24 00:23 20.56043 -75.80968 24431 ft 399 kts 305°
2026-04-24 00:24 20.57824 -75.83248 24821 ft 401 kts 305°
2026-04-24 00:24 20.59610 -75.85538 25190 ft 402 kts 305°
2026-04-24 00:24 20.61384 -75.87812 25539 ft 404 kts 305°
2026-04-24 00:24 20.63187 -75.90121 25895 ft 406 kts 304°
2026-04-24 00:25 20.64996 -75.92433 26244 ft 407 kts 304°
2026-04-24 00:25 20.66823 -75.94763 26590 ft 409 kts 304°
2026-04-24 00:25 20.68648 -75.97093 26932 ft 411 kts 304°
2026-04-24 00:25 20.70482 -75.99441 27280 ft 412 kts 304°
2026-04-24 00:26 20.72320 -76.01802 27618 ft 414 kts 304°
2026-04-24 00:26 20.74166 -76.04174 27949 ft 416 kts 304°
2026-04-24 00:26 20.76024 -76.06562 28280 ft 418 kts 304°
2026-04-24 00:26 20.77884 -76.08956 28626 ft 419 kts 304°
2026-04-24 00:27 20.79756 -76.11364 28938 ft 421 kts 303°
2026-04-24 00:27 20.81630 -76.13771 29257 ft 423 kts 303°
2026-04-24 00:27 20.83522 -76.16200 29577 ft 425 kts 303°
2026-04-24 00:27 20.85415 -76.18634 29885 ft 427 kts 303°
2026-04-24 00:28 20.87320 -76.21085 30188 ft 428 kts 303°
2026-04-24 00:28 20.89224 -76.23536 30460 ft 430 kts 303°
2026-04-24 00:28 20.91144 -76.26006 30743 ft 431 kts 303°
2026-04-24 00:28 20.93054 -76.28465 31097 ft 430 kts 303°
2026-04-24 00:29 20.94961 -76.30928 31488 ft 428 kts 303°
2026-04-24 00:29 20.96855 -76.33376 31873 ft 426 kts 303°
2026-04-24 00:29 20.98743 -76.35813 32261 ft 424 kts 303°
2026-04-24 00:29 21.00624 -76.38240 32630 ft 423 kts 302°
2026-04-24 00:30 21.02475 -76.40625 32998 ft 421 kts 302°
2026-04-24 00:30 21.04345 -76.43032 33368 ft 420 kts 302°
2026-04-24 00:30 21.06230 -76.45464 33751 ft 418 kts 302°
2026-04-24 00:30 21.08056 -76.47828 34109 ft 416 kts 302°
2026-04-24 00:31 21.09898 -76.50215 34404 ft 415 kts 302°
2026-04-24 00:31 21.11735 -76.52594 34700 ft 414 kts 302°
2026-04-24 00:31 21.13568 -76.54968 34997 ft 413 kts 302°
2026-04-24 00:31 21.15398 -76.57338 35288 ft 413 kts 302°
2026-04-24 00:32 21.17227 -76.59703 35576 ft 412 kts 301°
2026-04-24 00:32 21.19057 -76.62072 35854 ft 411 kts 301°
2026-04-24 00:32 21.20878 -76.64438 36018 ft 411 kts 301°
2026-04-24 00:32 21.22690 -76.66793 36041 ft 408 kts 301°
2026-04-24 00:33 21.26266 -76.71441 36055 ft 405 kts 301°
2026-04-24 00:33 21.29867 -76.76114 36048 ft 402 kts 301°
2026-04-24 00:34 21.33689 -76.80550 36046 ft 415 kts 313°
2026-04-24 00:34 21.36144 -76.82199 36051 ft 430 kts 325°
2026-04-24 00:34 21.39018 -76.83291 36044 ft 447 kts 337°
2026-04-24 00:35 21.45120 -76.84736 36056 ft 450 kts 337°
2026-04-24 00:35 21.51236 -76.86180 36056 ft 450 kts 337°
2026-04-24 00:36 21.57371 -76.87638 36065 ft 451 kts 337°
2026-04-24 00:36 21.63492 -76.89113 36098 ft 451 kts 337°
2026-04-24 00:37 21.69590 -76.90580 36084 ft 450 kts 337°
2026-04-24 00:37 21.75689 -76.92047 36080 ft 449 kts 337°
2026-04-24 00:38 21.81793 -76.93513 36080 ft 449 kts 337°
2026-04-24 00:38 21.87889 -76.94972 36078 ft 449 kts 337°
2026-04-24 00:39 21.93981 -76.96434 36108 ft 448 kts 336°
2026-04-24 00:39 22.00033 -76.97899 36093 ft 448 kts 336°
2026-04-24 00:40 22.06117 -76.99367 36088 ft 448 kts 336°
2026-04-24 00:40 22.12205 -77.00832 36087 ft 448 kts 336°
2026-04-24 00:41 22.18283 -77.02295 36086 ft 447 kts 336°
2026-04-24 00:41 22.24358 -77.03763 36088 ft 447 kts 336°
2026-04-24 00:42 22.30421 -77.05226 36072 ft 445 kts 336°
2026-04-24 00:42 22.36467 -77.06687 36069 ft 444 kts 336°
2026-04-24 00:43 22.42462 -77.08149 36076 ft 445 kts 336°
2026-04-24 00:43 22.48516 -77.09624 36090 ft 446 kts 336°
2026-04-24 00:44 22.54573 -77.11088 36093 ft 446 kts 336°
2026-04-24 00:44 22.60640 -77.12552 36103 ft 445 kts 336°
2026-04-24 00:45 22.66655 -77.14012 36089 ft 444 kts 336°
2026-04-24 00:45 22.72682 -77.15490 36083 ft 444 kts 336°
2026-04-24 00:46 22.78725 -77.16966 36104 ft 445 kts 336°
2026-04-24 00:46 22.84778 -77.18437 36109 ft 448 kts 336°
2026-04-24 00:47 22.84852 -77.18456 36109 ft 448 kts 336°
2026-04-24 00:51 22.88448 -77.19320 36074 ft 449 kts 336°
2026-04-24 00:51 22.94190 -77.21467 36121 ft 423 kts 319°
2026-04-24 00:52 22.96578 -77.23219 36106 ft 408 kts 310°
2026-04-24 00:52 22.98599 -77.25314 36080 ft 395 kts 302°
2026-04-24 00:52 23.02260 -77.29758 36082 ft 395 kts 302°
2026-04-24 00:53 23.05943 -77.34198 36081 ft 395 kts 302°
2026-04-24 00:53 23.09470 -77.38730 36082 ft 388 kts 297°
2026-04-24 00:54 23.12589 -77.43519 36082 ft 388 kts 296°
2026-04-24 00:54 23.15706 -77.48311 36090 ft 388 kts 296°
2026-04-24 00:55 23.18821 -77.53109 36089 ft 388 kts 296°
2026-04-24 00:55 23.21448 -77.57154 36090 ft 389 kts 296°
2026-04-24 01:00 23.22277 -77.58429 36092 ft 389 kts 296°
2026-04-24 01:00 23.23550 -77.60389 36100 ft 389 kts 297°
2026-04-24 01:03 23.26607 -77.65086 36118 ft 388 kts 297°
2026-04-24 01:04 23.29705 -77.69874 36101 ft 386 kts 297°
2026-04-24 01:04 23.32794 -77.74653 36095 ft 386 kts 297°
2026-04-24 01:05 23.35869 -77.79410 36097 ft 387 kts 297°
2026-04-24 01:05 23.38966 -77.84206 36096 ft 387 kts 297°
2026-04-24 01:06 23.42071 -77.89002 36098 ft 387 kts 297°
2026-04-24 01:06 23.45169 -77.93800 36099 ft 387 kts 297°
2026-04-24 01:07 23.48264 -77.98603 36112 ft 388 kts 297°
2026-04-24 01:07 23.51343 -78.03394 36107 ft 388 kts 297°
2026-04-24 01:08 23.54434 -78.08207 36105 ft 388 kts 297°
2026-04-24 01:08 23.57531 -78.13027 36105 ft 388 kts 297°
2026-04-24 01:09 23.60625 -78.17844 36107 ft 388 kts 297°
2026-04-24 01:09 23.63728 -78.22668 36122 ft 388 kts 297°
2026-04-24 01:10 23.66823 -78.27492 36115 ft 388 kts 297°
2026-04-24 01:10 23.69915 -78.32328 36114 ft 388 kts 297°
2026-04-24 01:11 23.73003 -78.37162 36111 ft 388 kts 297°
2026-04-24 01:11 23.76069 -78.41965 36105 ft 388 kts 297°
2026-04-24 01:12 23.79152 -78.46799 36107 ft 388 kts 297°
2026-04-24 01:12 23.82232 -78.51635 36106 ft 388 kts 297°
2026-04-24 01:13 23.85314 -78.56468 36111 ft 388 kts 297°
2026-04-24 01:13 23.88398 -78.61298 36107 ft 387 kts 297°
2026-04-24 01:14 23.91479 -78.66137 36106 ft 387 kts 297°
2026-04-24 01:14 23.94528 -78.70950 36107 ft 387 kts 297°
2026-04-24 01:15 23.97599 -78.75798 36128 ft 387 kts 297°
2026-04-24 01:15 24.01207 -78.80278 36109 ft 405 kts 314°
2026-04-24 01:16 24.06070 -78.83589 36099 ft 413 kts 319°
2026-04-24 01:16 24.11003 -78.86832 36097 ft 414 kts 319°
2026-04-24 01:17 24.15900 -78.90081 36097 ft 414 kts 319°
2026-04-24 01:17 24.20842 -78.93356 36098 ft 414 kts 319°
2026-04-24 01:18 24.25782 -78.96631 36104 ft 415 kts 319°
2026-04-24 01:18 24.30725 -78.99909 36106 ft 415 kts 319°
2026-04-24 01:19 24.35667 -79.03183 36108 ft 415 kts 319°
2026-04-24 01:19 24.40584 -79.06455 36104 ft 417 kts 319°
2026-04-24 01:20 24.45559 -79.09769 36089 ft 419 kts 319°
2026-04-24 01:20 24.50554 -79.13107 36090 ft 421 kts 319°
2026-04-24 01:21 24.55578 -79.16452 36099 ft 422 kts 319°
2026-04-24 01:21 24.60608 -79.19797 36103 ft 423 kts 319°
2026-04-24 01:22 24.65643 -79.23158 36124 ft 423 kts 320°
2026-04-24 01:22 24.70672 -79.26528 36118 ft 423 kts 320°
2026-04-24 01:23 24.75704 -79.29898 36115 ft 424 kts 320°
2026-04-24 01:23 24.80755 -79.33269 36114 ft 424 kts 320°
2026-04-24 01:24 24.85794 -79.36644 36114 ft 424 kts 320°
2026-04-24 01:24 24.90838 -79.40030 36119 ft 424 kts 320°
2026-04-24 01:24 24.93329 -79.41705 36018 ft 424 kts 320°
2026-04-24 01:25 24.95852 -79.43401 35172 ft 424 kts 320°
2026-04-24 01:25 24.98372 -79.45094 34060 ft 425 kts 321°
2026-04-24 01:25 25.00921 -79.46812 32639 ft 432 kts 322°
2026-04-24 01:25 25.03482 -79.48539 31504 ft 432 kts 322°
2026-04-24 01:26 25.06040 -79.50256 30501 ft 429 kts 323°
2026-04-24 01:26 25.08584 -79.51961 29447 ft 425 kts 323°
2026-04-24 01:26 25.11092 -79.53644 28420 ft 419 kts 323°
2026-04-24 01:26 25.13565 -79.55308 27381 ft 412 kts 324°
2026-04-24 01:27 25.15990 -79.56943 26306 ft 405 kts 324°
2026-04-24 01:27 25.18376 -79.58553 25265 ft 399 kts 324°
2026-04-24 01:27 25.20732 -79.60144 24277 ft 393 kts 325°
2026-04-24 01:27 25.23051 -79.61710 23273 ft 388 kts 325°
2026-04-24 01:28 25.25343 -79.63262 22212 ft 383 kts 325°
2026-04-24 01:28 25.27597 -79.64787 21203 ft 377 kts 325°
2026-04-24 01:28 25.29816 -79.66287 20221 ft 370 kts 325°
2026-04-24 01:28 25.31970 -79.67743 19235 ft 365 kts 325°
2026-04-24 01:29 25.34122 -79.69200 18227 ft 361 kts 325°
2026-04-24 01:29 25.36249 -79.70647 17128 ft 356 kts 325°
2026-04-24 01:29 25.38280 -79.72151 16099 ft 347 kts 316°
2026-04-24 01:29 25.39859 -79.74026 15743 ft 320 kts 303°
2026-04-24 01:30 25.41144 -79.76027 15533 ft 320 kts 303°
2026-04-24 01:30 25.42438 -79.78026 15264 ft 319 kts 303°
2026-04-24 01:30 25.43732 -79.80022 14997 ft 320 kts 303°
2026-04-24 01:30 25.45024 -79.82020 14719 ft 318 kts 303°
2026-04-24 01:31 25.46304 -79.84006 14447 ft 316 kts 303°
2026-04-24 01:31 25.47575 -79.85986 14176 ft 315 kts 303°
2026-04-24 01:31 25.48840 -79.87960 13838 ft 314 kts 303°
2026-04-24 01:31 25.50106 -79.89937 13360 ft 313 kts 304°
2026-04-24 01:32 25.51362 -79.91899 12934 ft 311 kts 304°
2026-04-24 01:32 25.52608 -79.93845 12512 ft 309 kts 304°
2026-04-24 01:32 25.53849 -79.95783 12090 ft 307 kts 304°
2026-04-24 01:32 25.55081 -79.97706 11682 ft 305 kts 304°
2026-04-24 01:33 25.56301 -79.99614 11272 ft 303 kts 304°
2026-04-24 01:33 25.57506 -80.01500 11083 ft 294 kts 304°
2026-04-24 01:33 25.58651 -80.03292 10967 ft 285 kts 304°
2026-04-24 01:33 25.59799 -80.05088 10676 ft 285 kts 304°
2026-04-24 01:34 25.60937 -80.06872 10350 ft 282 kts 305°
2026-04-24 01:34 25.62069 -80.08651 10025 ft 283 kts 305°
2026-04-24 01:34 25.63199 -80.10428 9672 ft 281 kts 305°
2026-04-24 01:34 25.64318 -80.12188 9344 ft 278 kts 305°
2026-04-24 01:35 25.65408 -80.13948 9022 ft 277 kts 300°
2026-04-24 01:35 25.65984 -80.15216 8854 ft 279 kts 295°
2026-04-24 01:35 25.66806 -80.17158 8607 ft 276 kts 296°
2026-04-24 01:35 25.67625 -80.19089 8356 ft 276 kts 296°
2026-04-24 01:36 25.68445 -80.21017 8109 ft 277 kts 296°
2026-04-24 01:36 25.69268 -80.22955 7838 ft 278 kts 295°
2026-04-24 01:36 25.70092 -80.24895 7557 ft 278 kts 295°
2026-04-24 01:36 25.70854 -80.26863 7276 ft 278 kts 287°
2026-04-24 01:37 25.71179 -80.28975 6992 ft 279 kts 271°
2026-04-24 01:37 25.71097 -80.31126 6710 ft 279 kts 267°
2026-04-24 01:37 25.70991 -80.33282 6421 ft 279 kts 267°
2026-04-24 01:37 25.70889 -80.35427 6122 ft 279 kts 267°
2026-04-24 01:38 25.70787 -80.37547 5842 ft 278 kts 266°
2026-04-24 01:38 25.70686 -80.39682 5559 ft 276 kts 266°
2026-04-24 01:38 25.70587 -80.41809 5281 ft 277 kts 266°
2026-04-24 01:38 25.70514 -80.43943 5000 ft 275 kts 273°
2026-04-24 01:39 25.71082 -80.45936 4878 ft 276 kts 301°
2026-04-24 01:39 25.72097 -80.47743 4742 ft 276 kts 303°
2026-04-24 01:39 25.73149 -80.49528 4591 ft 278 kts 304°
2026-04-24 01:39 25.74217 -80.51316 4467 ft 278 kts 303°
2026-04-24 01:40 25.75283 -80.53100 4317 ft 275 kts 303°
2026-04-24 01:40 25.76322 -80.54851 4192 ft 267 kts 303°
2026-04-24 01:40 25.77328 -80.56549 4060 ft 258 kts 305°
2026-04-24 01:40 25.78565 -80.57831 3946 ft 240 kts 337°
2026-04-24 01:41 25.80116 -80.57997 3802 ft 216 kts 21°
2026-04-24 01:41 25.81225 -80.57043 3713 ft 196 kts 63°
2026-04-24 01:41 25.81453 -80.55666 3633 ft 173 kts 97°
2026-04-24 01:41 25.81074 -80.54452 3534 ft 175 kts 121°
2026-04-24 01:42 25.80372 -80.53247 3452 ft 191 kts 123°
2026-04-24 01:42 25.79626 -80.52007 3349 ft 194 kts 123°
2026-04-24 01:42 25.78869 -80.50754 3234 ft 199 kts 123°
2026-04-24 01:42 25.78116 -80.49462 3151 ft 201 kts 117°
2026-04-24 01:43 25.77876 -80.47970 3061 ft 197 kts 86°
2026-04-24 01:43 25.78001 -80.46549 3026 ft 173 kts 89°
2026-04-24 01:43 25.78056 -80.45295 3027 ft 158 kts 90°
2026-04-24 01:43 25.78090 -80.44112 3030 ft 151 kts 91°
2026-04-24 01:44 25.78136 -80.42950 2861 ft 154 kts 90°
2026-04-24 01:44 25.78202 -80.41776 2439 ft 156 kts 89°
2026-04-24 01:44 25.78277 -80.40564 2000 ft 158 kts 89°
2026-04-24 01:44 25.78362 -80.39347 1603 ft 156 kts 89°
2026-04-24 01:45 25.78405 -80.38161 1233 ft 152 kts 92°
2026-04-24 01:45 25.78412 -80.37022 1088 ft 144 kts 91°
2026-04-24 01:45 25.78440 -80.35920 904 ft 143 kts 94°
2026-04-24 01:45 25.78476 -80.34822 720 ft 145 kts 91°
2026-04-24 01:46 25.78519 -80.33720 530 ft 143 kts 89°
2026-04-24 01:46 25.78563 -80.32625 345 ft 139 kts 89°
2026-04-24 01:46 25.78607 -80.31557 161 ft 142 kts 89°
2026-04-24 01:46 25.78652 -80.30479 24 ft 134 kts 88°
2026-04-24 01:47 25.78688 -80.29614 21 ft 87 kts 88°
2026-04-24 01:47 25.78707 -80.29131 22 ft 38 kts 86°
2026-04-24 01:47 25.78714 -80.29011 20 ft 6 kts 86°
2026-04-24 01:47 25.78725 -80.28861 21 ft 26 kts 84°
2026-04-24 01:48 25.78794 -80.28690 20 ft 27 kts 27°
2026-04-24 01:48 25.78903 -80.28612 20 ft 15 kts 38°
2026-04-24 01:48 25.78988 -80.28538 21 ft 17 kts 37°
2026-04-24 01:48 25.79091 -80.28457 21 ft 20 kts 33°
2026-04-24 01:49 25.79211 -80.28413 22 ft 18 kts 325°
2026-04-24 01:49 25.79289 -80.28542 21 ft 22 kts 299°
2026-04-24 01:49 25.79366 -80.28708 18 ft 26 kts 297°
2026-04-24 01:49 25.79501 -80.28808 21 ft 24 kts
2026-04-24 01:50 25.79667 -80.28813 23 ft 24 kts 355°
2026-04-24 01:50 25.79840 -80.28825 25 ft 25 kts 358°
2026-04-24 01:50 25.79945 -80.28761 26 ft 15 kts 92°
2026-04-24 01:50 25.79942 -80.28638 25 ft 17 kts 90°
2026-04-24 01:51 25.79944 -80.28492 21 ft 20 kts 88°
2026-04-24 01:51 25.79953 -80.28326 19 ft 22 kts 85°
2026-04-24 01:51 25.79962 -80.28160 18 ft 14 kts 101°
2026-04-24 01:51 25.79915 -80.28139 18 ft 4 kts 150°
2026-04-24 01:52 25.79897 -80.28096 18 ft 10 kts 99°
2026-04-24 01:52 25.79873 -80.28038 18 ft 8 kts 183°
2026-04-24 01:52 25.79851 -80.28057 19 ft 3 kts 219°
2026-04-24 01:52 25.79832 -80.28077 18 ft 3 kts 224°
2026-04-24 01:53 25.79823 -80.28087 18 ft 0 kts 224°